TimeEST,TemperatureF,Dew PointF,Humidity,Sea Level PressureIn,VisibilityMPH,Wind Direction,Wind SpeedMPH,Gust SpeedMPH,PrecipitationIn,Events,Conditions,WindDirDegrees,DateUTC
12:15 AM,27.1,24.4,90,30.44,7.0,Calm,Calm,-,N/A,,Clear,0,2012-11-15 05:15:00
12:35 AM,26.8,24.1,90,30.44,7.0,Calm,Calm,-,N/A,,Clear,0,2012-11-15 05:35:00
12:55 AM,27.1,24.4,90,30.44,7.0,Calm,Calm,-,N/A,,Clear,0,2012-11-15 05:55:00
1:15 AM,28.6,26.1,90,30.43,5.0,Calm,Calm,-,N/A,,Clear,0,2012-11-15 06:15:00
1:35 AM,27.9,25.3,90,30.42,7.0,Calm,Calm,-,N/A,,Clear,0,2012-11-15 06:35:00
1:55 AM,27.9,25.3,90,30.42,7.0,Calm,Calm,-,N/A,,Clear,0,2012-11-15 06:55:00
2:15 AM,28.0,25.5,90,30.41,7.0,Calm,Calm,-,N/A,,Clear,0,2012-11-15 07:15:00
2:35 AM,28.4,25.7,90,30.41,7.0,Calm,Calm,-,N/A,,Clear,0,2012-11-15 07:35:00
2:55 AM,28.4,25.7,90,30.41,7.0,Calm,Calm,-,N/A,,Clear,0,2012-11-15 07:55:00
3:15 AM,28.9,26.4,90,30.40,7.0,Calm,Calm,-,N/A,,Clear,0,2012-11-15 08:15:00
3:35 AM,28.4,25.7,90,30.39,7.0,Calm,Calm,-,N/A,,Clear,0,2012-11-15 08:35:00
3:55 AM,28.4,25.7,90,30.39,7.0,Calm,Calm,-,N/A,,Clear,0,2012-11-15 08:55:00
4:15 AM,28.2,25.5,90,30.39,7.0,Calm,Calm,-,N/A,,Clear,0,2012-11-15 09:15:00
4:35 AM,28.9,26.2,90,30.39,7.0,Calm,Calm,-,N/A,,Clear,0,2012-11-15 09:35:00
4:55 AM,28.0,25.3,90,30.39,7.0,Calm,Calm,-,N/A,,Clear,0,2012-11-15 09:55:00
5:15 AM,28.0,25.5,90,30.40,7.0,Calm,Calm,-,N/A,,Clear,0,2012-11-15 10:15:00
5:35 AM,27.0,24.6,91,30.39,5.0,Calm,Calm,-,N/A,,Clear,0,2012-11-15 10:35:00
5:55 AM,27.1,24.8,91,30.39,5.0,Calm,Calm,-,N/A,,Clear,0,2012-11-15 10:55:00
6:15 AM,27.0,24.8,92,30.39,5.0,Calm,Calm,-,N/A,,Clear,0,2012-11-15 11:15:00
6:35 AM,26.4,24.3,92,30.40,5.0,Calm,Calm,-,N/A,,Clear,0,2012-11-15 11:35:00
6:55 AM,26.1,23.9,92,30.39,5.0,Calm,Calm,-,N/A,,Clear,0,2012-11-15 11:55:00
7:15 AM,24.8,22.6,91,30.41,5.0,Calm,Calm,-,N/A,,Clear,0,2012-11-15 12:15:00
7:35 AM,25.3,23.0,91,30.41,4.0,Calm,Calm,-,N/A,,Clear,0,2012-11-15 12:35:00
7:55 AM,25.7,23.5,92,30.41,4.0,Calm,Calm,-,N/A,,Clear,0,2012-11-15 12:55:00
8:15 AM,26.4,24.3,92,30.41,4.0,Calm,Calm,-,N/A,,Clear,0,2012-11-15 13:15:00
8:35 AM,28.6,26.4,92,30.41,4.0,Calm,Calm,-,N/A,,Clear,0,2012-11-15 13:35:00
8:55 AM,30.7,27.5,88,30.41,4.0,Calm,Calm,-,N/A,,Clear,0,2012-11-15 13:55:00
9:15 AM,33.3,30.2,89,30.41,4.0,Calm,Calm,-,N/A,,Clear,0,2012-11-15 14:15:00
9:35 AM,34.9,29.5,81,30.41,7.0,Calm,Calm,-,N/A,,Clear,0,2012-11-15 14:35:00
9:55 AM,37.2,31.1,79,30.39,10.0,Calm,Calm,-,N/A,,Clear,0,2012-11-15 14:55:00
10:15 AM,38.3,30.7,74,30.39,10.0,Calm,Calm,-,N/A,,Clear,0,2012-11-15 15:15:00
10:35 AM,38.7,30.7,73,30.38,10.0,Calm,Calm,-,N/A,,Clear,0,2012-11-15 15:35:00
10:55 AM,39.9,30.0,68,30.38,10.0,Calm,Calm,-,N/A,,Clear,0,2012-11-15 15:55:00
11:15 AM,42.1,29.1,60,30.37,10.0,Calm,Calm,-,N/A,,Clear,0,2012-11-15 16:15:00
11:35 AM,44.1,30.6,59,30.36,10.0,Calm,Calm,-,N/A,,Clear,0,2012-11-15 16:35:00
11:55 AM,44.6,29.3,55,30.35,10.0,Calm,Calm,-,N/A,,Clear,0,2012-11-15 16:55:00
12:15 PM,46.4,30.0,53,30.34,10.0,Calm,Calm,-,N/A,,Clear,0,2012-11-15 17:15:00
12:35 PM,46.9,28.8,49,30.33,10.0,Calm,Calm,-,N/A,,Clear,0,2012-11-15 17:35:00
12:55 PM,48.4,29.7,48,30.32,10.0,Calm,Calm,-,N/A,,Clear,0,2012-11-15 17:55:00
1:15 PM,48.4,29.1,47,30.31,10.0,Calm,Calm,-,N/A,,Clear,0,2012-11-15 18:15:00
1:35 PM,49.3,30.0,48,30.31,10.0,Calm,Calm,-,N/A,,Clear,0,2012-11-15 18:35:00
1:55 PM,50.0,29.1,45,30.30,10.0,Calm,Calm,-,N/A,,Clear,0,2012-11-15 18:55:00
2:15 PM,50.2,29.7,45,30.30,10.0,Calm,Calm,-,N/A,,Clear,0,2012-11-15 19:15:00
2:35 PM,50.2,29.7,45,30.29,10.0,Calm,Calm,-,N/A,,Clear,0,2012-11-15 19:35:00
2:55 PM,50.9,29.3,43,30.29,10.0,Calm,Calm,-,N/A,,Clear,0,2012-11-15 19:55:00
3:15 PM,50.0,29.5,45,30.29,10.0,Calm,Calm,-,N/A,,Clear,0,2012-11-15 20:15:00
3:35 PM,49.1,30.0,48,30.29,10.0,Calm,Calm,-,N/A,,Clear,0,2012-11-15 20:35:00
3:55 PM,48.4,29.5,48,30.29,10.0,Calm,Calm,-,N/A,,Clear,0,2012-11-15 20:55:00
4:15 PM,48.6,29.3,47,30.29,10.0,Calm,Calm,-,N/A,,Clear,0,2012-11-15 21:15:00
4:35 PM,48.2,29.5,48,30.29,10.0,Calm,Calm,-,N/A,,Clear,0,2012-11-15 21:35:00
4:55 PM,46.2,32.0,58,30.29,10.0,Calm,Calm,-,N/A,,Clear,0,2012-11-15 21:55:00
5:15 PM,43.7,32.7,65,30.29,10.0,Calm,Calm,-,N/A,,Clear,0,2012-11-15 22:15:00
5:35 PM,41.5,31.6,68,30.30,10.0,Calm,Calm,-,N/A,,Clear,0,2012-11-15 22:35:00
5:55 PM,40.6,30.6,67,30.30,10.0,Calm,Calm,-,N/A,,Clear,0,2012-11-15 22:55:00
6:15 PM,40.6,30.4,67,30.30,10.0,Calm,Calm,-,N/A,,Clear,0,2012-11-15 23:15:00
6:35 PM,38.5,30.7,74,30.31,10.0,Calm,Calm,-,N/A,,Clear,0,2012-11-15 23:35:00
6:55 PM,38.1,30.9,75,30.31,10.0,Calm,Calm,-,N/A,,Clear,0,2012-11-15 23:55:00
7:15 PM,37.4,30.7,77,30.32,10.0,Calm,Calm,-,N/A,,Clear,0,2012-11-16 00:15:00
7:35 PM,37.2,30.7,77,30.32,10.0,Calm,Calm,-,N/A,,Clear,0,2012-11-16 00:35:00
7:55 PM,36.9,31.5,81,30.32,10.0,Calm,Calm,-,N/A,,Clear,0,2012-11-16 00:55:00
8:15 PM,37.9,32.5,81,30.32,10.0,Calm,Calm,-,N/A,,Clear,0,2012-11-16 01:15:00
8:35 PM,36.3,32.0,84,30.31,10.0,Calm,Calm,-,N/A,,Clear,0,2012-11-16 01:35:00
8:55 PM,36.7,32.2,84,30.32,10.0,Calm,Calm,-,N/A,,Clear,0,2012-11-16 01:55:00
9:15 PM,36.9,32.0,83,30.32,10.0,Calm,Calm,-,N/A,,Clear,0,2012-11-16 02:15:00
9:35 PM,37.0,32.0,82,30.32,10.0,Calm,Calm,-,N/A,,Clear,0,2012-11-16 02:35:00
9:55 PM,36.1,32.0,85,30.32,10.0,Calm,Calm,-,N/A,,Clear,0,2012-11-16 02:55:00
10:15 PM,34.9,31.3,87,30.32,10.0,Calm,Calm,-,N/A,,Clear,0,2012-11-16 03:15:00
10:35 PM,34.2,30.9,88,30.32,7.0,Calm,Calm,-,N/A,,Clear,0,2012-11-16 03:35:00
10:55 PM,34.7,30.9,86,30.33,10.0,Calm,Calm,-,N/A,,Clear,0,2012-11-16 03:55:00
11:15 PM,34.5,31.1,87,30.33,7.0,Calm,Calm,-,N/A,,Clear,0,2012-11-16 04:15:00
11:35 PM,33.3,30.4,89,30.33,7.0,Calm,Calm,-,N/A,,Clear,0,2012-11-16 04:35:00
11:55 PM,34.0,31.3,90,30.33,7.0,Calm,Calm,-,N/A,,Clear,0,2012-11-16 04:55:00